Observations for Trim Patrick St
| Time | AQI | Temp °C | Hum % | Pres Pa | CO μg/m³ | H₂S μg/m³ | NO μg/m³ | NO₂ μg/m³ | O₃ μg/m³ | SO₂ μg/m³ | PM1 μg/m³ | PM2.5 μg/m³ | PM10 μg/m³ |
|---|---|---|---|---|---|---|---|---|---|---|---|---|---|
| Friday 31 July 2026 | |||||||||||||
| 09:08 | 1 | 23.2 | 50 | 70,233 | 0.16 | 0 | 2.66 | 5.37 | 26.45 | 3.61 | 5.43 | 11.01 | 12.11 |
| 09:07 | 1 | 23.2 | 51 | 70,441 | 0.17 | 0 | 2.86 | 1.91 | 14.5 | 4.59 | 5.43 | 10.9 | 11.98 |
| 09:06 | 1 | 23.1 | 50 | 70,657 | 0.15 | 0 | 2.77 | 6.4 | 24.09 | 4.43 | 4.57 | 10.96 | 12.06 |
| 09:05 | 1 | 23 | 52 | 70,855 | 0.15 | 0 | 2.95 | 3.91 | 14.91 | 4.19 | 4.57 | 9.34 | 10.27 |
| 09:04 | 1 | 22.9 | 52 | 71,088 | 0.15 | 0 | 3.18 | 5.51 | 30.89 | 3.84 | 5.43 | 10.85 | 11.93 |
| 09:03 | 1 | 22.9 | 52 | 71,283 | 0.15 | 0 | 3.17 | 6.57 | 33.69 | 3.7 | 5.43 | 10.83 | 11.92 |
| 09:02 | 1 | 22.8 | 53 | 71,428 | 0.2 | 0 | 3.2 | 3.82 | 2.66 | 3.6 | 5.43 | 12.29 | 13.52 |
| 09:01 | 1 | 22.7 | 56 | 71,715 | 0.19 | 0 | 3.46 | 3.5 | 23.96 | 3.59 | 6.29 | 14.29 | 15.72 |
| 09:00 | 1 | 22.7 | 53 | 72,100 | 0.2 | 0 | 3.22 | 5.35 | 25.55 | 3.06 | 3.71 | 9.23 | 10.15 |
| 08:59 | 1 | 22.6 | 56 | 72,487 | 0.21 | 0 | 3.56 | 3.29 | 22.9 | 3.79 | 5.43 | 11.31 | 12.44 |
| 08:58 | 1 | 22.4 | 54 | 72,872 | 0.25 | 0 | 3.71 | 2.65 | 2.66 | 2.44 | 5.43 | 12.2 | 13.42 |
| 08:57 | 1 | 22.3 | 55 | 73,202 | 0.25 | 0 | 4.54 | 4.16 | 28.43 | 4.48 | 6.29 | 12.88 | 14.17 |
| 08:56 | 1 | 22.3 | 56 | 73,495 | 0.21 | 0 | 4.68 | 9.34 | 30.96 | 3.57 | 6.29 | 12.05 | 13.25 |
| 08:55 | 1 | 22.2 | 56 | 73,587 | 0.19 | 0 | 4.65 | 5.73 | 40.59 | 3.07 | 5.43 | 11.25 | 12.38 |
| 08:54 | 1 | 22.1 | 57 | 73,781 | 0.24 | 0 | 4.58 | 3.81 | 13.18 | 2.65 | 5.43 | 10.48 | 11.53 |
| 08:53 | 1 | 22 | 56 | 74,011 | 0.36 | 0 | 4.26 | 12.09 | 0 | 5.46 | 17.43 | 24.1 | 26.51 |
| 08:52 | 1 | 21.9 | 55 | 74,165 | 0.23 | 0 | 3.25 | 7.13 | 11.08 | 2.88 | 8 | 13.65 | 15.02 |
| 08:51 | 1 | 21.7 | 58 | 74,300 | 0.26 | 0 | 3.7 | 2.61 | 7.86 | 2.17 | 5.43 | 11.9 | 13.09 |
| 08:50 | 1 | 21.6 | 55 | 74,424 | 0.25 | 0 | 3.27 | 6.41 | 29.6 | 2.2 | 5.43 | 11.38 | 12.51 |
| 08:49 | 1 | 21.4 | 55 | 74,503 | 0.25 | 0 | 3.28 | 4.07 | 19.52 | 1.91 | 5.43 | 11.38 | 12.51 |